QPF
0.00 0.01 0.01 0.01 0.01 0.00 0.01 0.01 0.01 0.01 0.01 0.01 0.01 0.01 0.01 0.01 0.01 0.01 0.01 0.01 0.01 0.01 0.01 0.01 0.02 0.02 0.02 0.02 0.02 0.03 0.03 0.04 0.06 0.05 0.02 0.01 0.01 0.02 0.02 0.03 0.02 0.02 0.02 0.03
0.01 0.01 0.01 0.01 0.01 0.01 0.01 0.01 0.01 0.01 0.01 0.02 0.01 0.01 0.01 0.01 0.01 0.00 0.00 0.00 0.02 0.03 0.01 0.01 0.01 0.02 0.02 0.01 0.02 0.03 0.03 0.03 0.04 0.04 0.04 0.02 0.02 0.02 0.02 0.02 0.02 0.03 0.03 0.04
0.01 0.01 0.01 0.01 0.00 0.01 0.01 0.00 0.01 0.01 0.01 0.01 0.01 0.01 0.01 0.01 0.00 0.00 0.00 0.00 0.01 0.05 0.03 0.01 0.01 0.01 0.02 0.02 0.02 0.02 0.03 0.04 0.04 0.05 0.04 0.03 0.02 0.02 0.02 0.02 0.02 0.02 0.03 0.03
0.01 0.01 0.01 0.01 0.01 0.01 0.01 0.01 0.00 0.00 0.00 0.00 0.01 0.01 0.01 0.01 0.01 0.00 0.00 0.01 0.01 0.02 0.03 0.01 0.01 0.01 0.01 0.02 0.02 0.02 0.03 0.04 0.04 0.04 0.05 0.05 0.04 0.03 0.02 0.02 0.02 0.02 0.02 0.02
0.01 0.01 0.01 0.02 0.01 0.00 0.01 0.01 0.00 0.00 0.00 0.00 0.01 0.01 0.01 0.01 0.01 0.01 0.01 0.01 0.02 0.02 0.02 0.02 0.02 0.02 0.01 0.01 0.01 0.01 0.03 0.04 0.04 0.04 0.04 0.04 0.04 0.03 0.02 0.02 0.02 0.01 0.02 0.02
0.02 0.02 0.02 0.02 0.01 0.00 0.01 0.01 0.01 0.01 0.01 0.01 0.01 0.02 0.02 0.01 0.01 0.01 0.01 0.02 0.02 0.02 0.01 0.02 0.03 0.02 0.01 0.02 0.01 0.01 0.01 0.02 0.03 0.03 0.03 0.03 0.03 0.03 0.03 0.02 0.02 0.02 0.02 0.01
0.02 0.02 0.02 0.01 0.01 0.01 0.02 0.02 0.01 0.01 0.01 0.01 0.01 0.01 0.01 0.01 0.01 0.01 0.01 0.02 0.02 0.02 0.01 0.01 0.02 0.02 0.02 0.02 0.02 0.02 0.02 0.02 0.03 0.02 0.02 0.02 0.02 0.02 0.02 0.02 0.02 0.02 0.02 0.02
0.02 0.02 0.02 0.01 0.01 0.03 0.03 0.02 0.01 0.01 0.01 0.01 0.01 0.01 0.00 0.00 0.00 0.00 0.01 0.01 0.01 0.01 0.01 0.01 0.01 0.01 0.01 0.02 0.03 0.04 0.03 0.03 0.03 0.03 0.03 0.03 0.03 0.03 0.03 0.03 0.03 0.03 0.03 0.03
0.02 0.02 0.01 0.01 0.01 0.01 0.01 0.01 0.01 0.01 0.01 0.00 0.01 0.01 0.00 0.00 0.00 0.00 0.00 0.01 0.01 0.01 0.01 0.02 0.01 0.02 0.02 0.03 0.03 0.04 0.05 0.03 0.03 0.03 0.03 0.03 0.03 0.04 0.05 0.05 0.06 0.05 0.05 0.04
0.01 0.01 0.01 0.01 0.01 0.01 0.01 0.01 0.01 0.01 0.01 0.01 0.00 0.00 0.00 0.00 0.00 0.00 0.01 0.01 0.01 0.02 0.02 0.02 0.01 0.02 0.02 0.02 0.03 0.03 0.03 0.03 0.02 0.02 0.03 0.03 0.03 0.03 0.04 0.05 0.07 0.07 0.05 0.04
0.02 0.01 0.01 0.01 0.01 0.01 0.01 0.01 0.01 0.00 0.00 0.01 0.01 0.01 0.01 0.01 0.00 0.01 0.01 0.01 0.01 0.01 0.01 0.02 0.01 0.01 0.02 0.02 0.02 0.03 0.03 0.03 0.03 0.02 0.02 0.02 0.02 0.02 0.02 0.02 0.03 0.06 0.06 0.04
0.02 0.01 0.02 0.02 0.01 0.02 0.01 0.01 0.01 0.01 0.01 0.01 0.01 0.01 0.01 0.01 0.01 0.01 0.01 0.01 0.01 0.01 0.01 0.01 0.01 0.01 0.01 0.01 0.02 0.03 0.03 0.03 0.03 0.03 0.02 0.01 0.01 0.01 0.02 0.02 0.02 0.03 0.04 0.05
0.02 0.02 0.01 0.01 0.01 0.01 0.02 0.02 0.02 0.01 0.01 0.01 0.01 0.01 0.01 0.02 0.02 0.02 0.02 0.02 0.02 0.02 0.02 0.02 0.02 0.02 0.01 0.01 0.01 0.02 0.04 0.05 0.03 0.03 0.02 0.02 0.01 0.01 0.02 0.02 0.02 0.02 0.03 0.05
0.02 0.02 0.01 0.01 0.01 0.01 0.01 0.01 0.01 0.01 0.01 0.01 0.01 0.01 0.02 0.02 0.02 0.02 0.02 0.03 0.03 0.04 0.03 0.04 0.04 0.03 0.02 0.02 0.02 0.02 0.03 0.05 0.06 0.03 0.03 0.03 0.02 0.02 0.02 0.03 0.03 0.02 0.02 0.03
0.02 0.02 0.01 0.01 0.01 0.00 0.01 0.01 0.01 0.01 0.01 0.01 0.01 0.02 0.03 0.03 0.03 0.02 0.03 0.03 0.03 0.04 0.04 0.04 0.05 0.04 0.03 0.03 0.03 0.03 0.04 0.04 0.07 0.08 0.04 0.03 0.03 0.03 0.03 0.03 0.03 0.03 0.02 0.03
0.02 0.01 0.01 0.01 0.01 0.01 0.01 0.01 0.01 0.01 0.02 0.02 0.02 0.02 0.03 0.04 0.03 0.02 0.02 0.02 0.02 0.03 0.04 0.06 0.07 0.07 0.05 0.04 0.03 0.03 0.04 0.04 0.04 0.05 0.05 0.06 0.05 0.04 0.04 0.03 0.04 0.04 0.03 0.03
0.03 0.03 0.02 0.02 0.01 0.01 0.01 0.01 0.01 0.01 0.02 0.02 0.03 0.03 0.04 0.04 0.03 0.02 0.02 0.02 0.02 0.04 0.06 0.06 0.06 0.08 0.08 0.06 0.04 0.03 0.03 0.03 0.03 0.03 0.02 0.02 0.05 0.07 0.07 0.06 0.06 0.05 0.04 0.04
0.04 0.04 0.03 0.03 0.02 0.01 0.01 0.01 0.01 0.01 0.01 0.02 0.04 0.04 0.04 0.04 0.03 0.02 0.02 0.01 0.01 0.03 0.03 0.03 0.04 0.05 0.05 0.05 0.05 0.03 0.03 0.02 0.02 0.03 0.03 0.03 0.02 0.03 0.04 0.06 0.07 0.07 0.05 0.05
0.05 0.03 0.03 0.03 0.03 0.02 0.02 0.01 0.01 0.01 0.01 0.02 0.03 0.04 0.04 0.04 0.02 0.02 0.01 0.01 0.01 0.02 0.02 0.02 0.03 0.02 0.02 0.02 0.02 0.02 0.02 0.04 0.04 0.04 0.04 0.03 0.03 0.03 0.03 0.04 0.04 0.04 0.04 0.04
0.03 0.02 0.03 0.03 0.03 0.03 0.02 0.02 0.01 0.01 0.01 0.03 0.03 0.02 0.03 0.03 0.02 0.01 0.01 0.01 0.02 0.02 0.02 0.02 0.03 0.02 0.02 0.02 0.02 0.02 0.03 0.03 0.04 0.04 0.04 0.05 0.04 0.04 0.04 0.04 0.03 0.03 0.04 0.04
0.04 0.04 0.04 0.04 0.02 0.02 0.02 0.02 0.02 0.02 0.03 0.05 0.04 0.03 0.03 0.02 0.02 0.02 0.03 0.02 0.02 0.02 0.01 0.02 0.02 0.03 0.03 0.03 0.03 0.03 0.04 0.05 0.06 0.05 0.05 0.07 0.07 0.06 0.05 0.04 0.03 0.04 0.04 0.04
0.05 0.05 0.04 0.03 0.02 0.02 0.03 0.02 0.02 0.02 0.03 0.04 0.04 0.03 0.03 0.03 0.03 0.03 0.03 0.03 0.02 0.03 0.02 0.01 0.02 0.03 0.03 0.03 0.02 0.02 0.02 0.05 0.08 0.08 0.07 0.09 0.09 0.07 0.05 0.04 0.04 0.04 0.03 0.02
0.05 0.04 0.04 0.04 0.02 0.02 0.02 0.01 0.02 0.03 0.03 0.03 0.04 0.03 0.03 0.03 0.03 0.02 0.02 0.02 0.02 0.02 0.03 0.02 0.03 0.03 0.03 0.02 0.02 0.02 0.02 0.03 0.06 0.07 0.08 0.08 0.08 0.07 0.05 0.04 0.03 0.03 0.02 0.03
0.02 0.03 0.03 0.02 0.01 0.01 0.01 0.01 0.01 0.02 0.02 0.03 0.04 0.04 0.03 0.03 0.03 0.02 0.01 0.01 0.02 0.02 0.02 0.03 0.02 0.02 0.02 0.02 0.02 0.03 0.02 0.03 0.02 0.03 0.03 0.04 0.04 0.04 0.04 0.03 0.03 0.03 0.03 0.03
0.01 0.01 0.01 0.02 0.01 0.01 0.01 0.01 0.01 0.02 0.03 0.03 0.04 0.05 0.03 0.03 0.04 0.03 0.01 0.01 0.01 0.01 0.02 0.02 0.02 0.02 0.01 0.02 0.02 0.02 0.02 0.02 0.01 0.01 0.01 0.02 0.02 0.02 0.03 0.03 0.03 0.03 0.03 0.03
0.01 0.01 0.01 0.01 0.01 0.01 0.01 0.01 0.01 0.02 0.03 0.04 0.04 0.04 0.03 0.02 0.03 0.03 0.02 0.01 0.01 0.01 0.01 0.01 0.02 0.02 0.02 0.02 0.02 0.02 0.01 0.01 0.01 0.01 0.01 0.01 0.01 0.01 0.02 0.02 0.02 0.02 0.03 0.03
0.01 0.02 0.02 0.01 0.01 0.01 0.01 0.00 0.01 0.02 0.04 0.04 0.04 0.03 0.03 0.03 0.02 0.02 0.02 0.02 0.02 0.02 0.02 0.03 0.03 0.02 0.02 0.02 0.01 0.01 0.01 0.01 0.01 0.01 0.01 0.01 0.02 0.02 0.02 0.02 0.02 0.02 0.02 0.02
MSLP
1015.44 1016.00 1016.64 1017.32 1018.00 1018.63 1019.17 1019.62 1019.95 1020.16 1020.26 1020.24 1020.12 1019.90 1019.60 1019.21 1018.73 1018.15 1017.48 1016.72 1015.86 1014.91 1013.89 1012.82 1011.72 1010.63 1009.57 1008.60 1007.74 1007.03 1006.49 1006.13 1005.96 1005.96 1006.10 1006.36 1006.69 1007.07 1007.48 1007.89 1008.30 1008.72 1009.16 1009.62
1016.28 1017.06 1017.94 1018.86 1019.75 1020.54 1021.17 1021.63 1021.88 1021.93 1021.80 1021.52 1021.14 1020.69 1020.21 1019.72 1019.21 1018.69 1018.14 1017.53 1016.83 1016.03 1015.12 1014.11 1013.01 1011.85 1010.69 1009.57 1008.54 1007.66 1006.95 1006.44 1006.13 1006.00 1006.04 1006.19 1006.43 1006.73 1007.05 1007.39 1007.74 1008.12 1008.53 1008.98
1016.93 1017.87 1018.92 1020.02 1021.07 1021.98 1022.70 1023.17 1023.37 1023.31 1023.01 1022.55 1021.97 1021.33 1020.71 1020.12 1019.58 1019.09 1018.62 1018.12 1017.55 1016.88 1016.07 1015.12 1014.05 1012.87 1011.65 1010.44 1009.31 1008.30 1007.47 1006.83 1006.40 1006.15 1006.07 1006.11 1006.25 1006.44 1006.67 1006.92 1007.21 1007.53 1007.90 1008.33
1017.45 1018.46 1019.60 1020.79 1021.93 1022.92 1023.68 1024.16 1024.33 1024.21 1023.82 1023.24 1022.53 1021.79 1021.07 1020.43 1019.87 1019.40 1018.98 1018.56 1018.09 1017.51 1016.79 1015.91 1014.87 1013.71 1012.48 1011.23 1010.03 1008.95 1008.03 1007.29 1006.75 1006.39 1006.19 1006.11 1006.13 1006.20 1006.32 1006.48 1006.68 1006.93 1007.26 1007.65
1017.92 1018.93 1020.07 1021.25 1022.39 1023.38 1024.15 1024.62 1024.78 1024.62 1024.20 1023.58 1022.84 1022.05 1021.31 1020.65 1020.10 1019.65 1019.28 1018.92 1018.51 1018.00 1017.34 1016.52 1015.53 1014.40 1013.18 1011.93 1010.72 1009.61 1008.63 1007.83 1007.20 1006.74 1006.42 1006.22 1006.10 1006.05 1006.04 1006.08 1006.18 1006.35 1006.60 1006.94
1018.45 1019.38 1020.43 1021.53 1022.58 1023.51 1024.22 1024.65 1024.79 1024.64 1024.22 1023.62 1022.89 1022.14 1021.42 1020.80 1020.28 1019.87 1019.52 1019.20 1018.84 1018.37 1017.76 1016.99 1016.05 1014.97 1013.79 1012.58 1011.39 1010.28 1009.29 1008.45 1007.75 1007.20 1006.78 1006.45 1006.20 1006.00 1005.85 1005.76 1005.73 1005.79 1005.95 1006.21
1019.07 1019.87 1020.78 1021.72 1022.63 1023.43 1024.04 1024.40 1024.51 1024.35 1023.97 1023.41 1022.75 1022.07 1021.42 1020.86 1020.39 1020.02 1019.71 1019.42 1019.08 1018.64 1018.07 1017.35 1016.46 1015.45 1014.34 1013.19 1012.05 1010.98 1010.01 1009.16 1008.43 1007.81 1007.29 1006.84 1006.45 1006.10 1005.80 1005.56 1005.39 1005.31 1005.35 1005.51
1019.79 1020.44 1021.17 1021.92 1022.64 1023.27 1023.74 1024.01 1024.06 1023.90 1023.55 1023.05 1022.48 1021.88 1021.32 1020.84 1020.43 1020.10 1019.82 1019.54 1019.22 1018.81 1018.27 1017.59 1016.77 1015.83 1014.81 1013.76 1012.71 1011.71 1010.79 1009.96 1009.22 1008.56 1007.96 1007.41 1006.88 1006.40 1005.94 1005.54 1005.21 1004.99 1004.89 1004.92
1020.53 1021.04 1021.59 1022.15 1022.67 1023.11 1023.42 1023.58 1023.56 1023.38 1023.05 1022.61 1022.12 1021.61 1021.14 1020.73 1020.38 1020.09 1019.83 1019.56 1019.25 1018.86 1018.35 1017.72 1016.98 1016.14 1015.22 1014.28 1013.35 1012.45 1011.61 1010.83 1010.11 1009.43 1008.78 1008.15 1007.53 1006.91 1006.32 1005.77 1005.29 1004.92 1004.67 1004.58
1021.20 1021.59 1021.98 1022.36 1022.70 1022.97 1023.13 1023.17 1023.08 1022.87 1022.55 1022.16 1021.73 1021.30 1020.90 1020.54 1020.24 1019.97 1019.73 1019.47 1019.17 1018.79 1018.32 1017.75 1017.09 1016.35 1015.56 1014.75 1013.95 1013.17 1012.43 1011.73 1011.05 1010.39 1009.73 1009.06 1008.36 1007.66 1006.96 1006.30 1005.70 1005.19 1004.81 1004.59
1021.67 1021.98 1022.26 1022.50 1022.69 1022.82 1022.86 1022.81 1022.65 1022.41 1022.10 1021.74 1021.36 1020.98 1020.63 1020.31 1020.04 1019.79 1019.55 1019.29 1018.99 1018.63 1018.20 1017.69 1017.12 1016.48 1015.82 1015.14 1014.48 1013.83 1013.20 1012.59 1011.99 1011.38 1010.74 1010.07 1009.36 1008.63 1007.88 1007.15 1006.47 1005.87 1005.40 1005.07
1021.85 1022.11 1022.32 1022.48 1022.59 1022.63 1022.59 1022.48 1022.29 1022.03 1021.72 1021.38 1021.03 1020.69 1020.37 1020.08 1019.82 1019.57 1019.33 1019.07 1018.78 1018.44 1018.04 1017.59 1017.09 1016.56 1016.00 1015.45 1014.91 1014.38 1013.87 1013.36 1012.85 1012.32 1011.75 1011.13 1010.46 1009.75 1009.02 1008.30 1007.61 1006.99 1006.47 1006.09
1021.70 1021.94 1022.14 1022.28 1022.35 1022.36 1022.29 1022.16 1021.97 1021.72 1021.43 1021.11 1020.79 1020.47 1020.17 1019.89 1019.63 1019.38 1019.13 1018.87 1018.57 1018.25 1017.88 1017.48 1017.04 1016.59 1016.13 1015.68 1015.24 1014.81 1014.40 1013.99 1013.58 1013.14 1012.66 1012.14 1011.57 1010.96 1010.32 1009.67 1009.04 1008.46 1007.97 1007.57
1021.26 1021.52 1021.73 1021.89 1021.98 1022.01 1021.97 1021.86 1021.70 1021.48 1021.22 1020.94 1020.64 1020.35 1020.06 1019.78 1019.52 1019.26 1019.00 1018.72 1018.43 1018.11 1017.76 1017.39 1017.01 1016.61 1016.21 1015.83 1015.46 1015.11 1014.78 1014.46 1014.13 1013.80 1013.44 1013.04 1012.61 1012.15 1011.65 1011.15 1010.65 1010.18 1009.76 1009.42
1020.62 1020.92 1021.18 1021.39 1021.54 1021.62 1021.64 1021.59 1021.48 1021.31 1021.10 1020.86 1020.59 1020.32 1020.04 1019.76 1019.49 1019.22 1018.95 1018.67 1018.37 1018.06 1017.72 1017.37 1017.00 1016.64 1016.27 1015.93 1015.60 1015.29 1015.01 1014.75 1014.51 1014.27 1014.03 1013.78 1013.51 1013.23 1012.92 1012.60 1012.28 1011.97 1011.68 1011.42
1019.90 1020.25 1020.57 1020.85 1021.08 1021.25 1021.34 1021.37 1021.33 1021.22 1021.06 1020.86 1020.63 1020.37 1020.10 1019.83 1019.55 1019.27 1018.99 1018.70 1018.40 1018.08 1017.75 1017.41 1017.05 1016.70 1016.34 1016.00 1015.68 1015.39 1015.14 1014.92 1014.73 1014.57 1014.44 1014.33 1014.22 1014.12 1014.02 1013.91 1013.78 1013.65 1013.51 1013.37
1019.25 1019.64 1020.03 1020.38 1020.69 1020.94 1021.12 1021.22 1021.25 1021.21 1021.10 1020.93 1020.73 1020.49 1020.22 1019.95 1019.67 1019.38 1019.09 1018.79 1018.48 1018.17 1017.84 1017.50 1017.15 1016.79 1016.44 1016.09 1015.77 1015.47 1015.22 1015.01 1014.86 1014.76 1014.71 1014.71 1014.75 1014.81 1014.88 1014.96 1015.02 1015.06 1015.07 1015.05
1018.73 1019.18 1019.62 1020.04 1020.42 1020.74 1020.98 1021.15 1021.24 1021.24 1021.17 1021.04 1020.85 1020.62 1020.36 1020.08 1019.79 1019.50 1019.20 1018.90 1018.60 1018.29 1017.97 1017.64 1017.30 1016.95 1016.59 1016.24 1015.90 1015.59 1015.32 1015.11 1014.97 1014.90 1014.90 1014.97 1015.11 1015.29 1015.50 1015.72 1015.93 1016.11 1016.25 1016.34
1018.40 1018.89 1019.38 1019.85 1020.27 1020.64 1020.93 1021.14 1021.26 1021.30 1021.25 1021.13 1020.95 1020.72 1020.46 1020.18 1019.88 1019.59 1019.30 1019.00 1018.72 1018.43 1018.13 1017.83 1017.50 1017.17 1016.82 1016.47 1016.13 1015.81 1015.53 1015.31 1015.16 1015.09 1015.10 1015.20 1015.39 1015.63 1015.91 1016.22 1016.52 1016.79 1017.01 1017.17
1018.22 1018.75 1019.27 1019.76 1020.22 1020.60 1020.91 1021.14 1021.28 1021.33 1021.29 1021.17 1020.99 1020.76 1020.50 1020.21 1019.92 1019.63 1019.35 1019.08 1018.82 1018.56 1018.30 1018.04 1017.76 1017.46 1017.15 1016.82 1016.49 1016.18 1015.89 1015.66 1015.48 1015.39 1015.39 1015.48 1015.65 1015.90 1016.20 1016.52 1016.85 1017.15 1017.41 1017.61
1018.14 1018.69 1019.23 1019.73 1020.18 1020.57 1020.88 1021.10 1021.24 1021.29 1021.25 1021.14 1020.96 1020.73 1020.46 1020.18 1019.90 1019.62 1019.36 1019.12 1018.90 1018.69 1018.49 1018.28 1018.06 1017.82 1017.56 1017.28 1016.98 1016.69 1016.41 1016.17 1015.98 1015.86 1015.82 1015.86 1015.99 1016.19 1016.45 1016.74 1017.04 1017.33 1017.59 1017.79
1018.09 1018.65 1019.18 1019.67 1020.10 1020.47 1020.77 1020.98 1021.11 1021.15 1021.11 1021.00 1020.83 1020.61 1020.36 1020.10 1019.83 1019.58 1019.35 1019.15 1018.97 1018.82 1018.67 1018.54 1018.39 1018.22 1018.03 1017.81 1017.57 1017.32 1017.06 1016.82 1016.62 1016.47 1016.38 1016.37 1016.43 1016.56 1016.75 1016.98 1017.22 1017.47 1017.69 1017.88
1018.00 1018.55 1019.06 1019.52 1019.93 1020.27 1020.55 1020.74 1020.86 1020.91 1020.88 1020.79 1020.63 1020.44 1020.22 1019.98 1019.75 1019.53 1019.33 1019.17 1019.05 1018.94 1018.86 1018.79 1018.72 1018.63 1018.51 1018.36 1018.19 1017.98 1017.76 1017.54 1017.34 1017.16 1017.04 1016.98 1016.97 1017.03 1017.14 1017.30 1017.48 1017.66 1017.85 1018.01
1017.84 1018.36 1018.84 1019.27 1019.64 1019.96 1020.21 1020.40 1020.53 1020.58 1020.58 1020.51 1020.40 1020.24 1020.06 1019.86 1019.67 1019.49 1019.33 1019.21 1019.12 1019.06 1019.03 1019.02 1019.01 1018.98 1018.93 1018.86 1018.74 1018.59 1018.42 1018.23 1018.04 1017.87 1017.72 1017.62 1017.57 1017.57 1017.62 1017.71 1017.83 1017.98 1018.12 1018.27
1017.59 1018.08 1018.52 1018.91 1019.25 1019.55 1019.79 1019.98 1020.12 1020.21 1020.24 1020.22 1020.15 1020.05 1019.91 1019.76 1019.61 1019.46 1019.34 1019.25 1019.19 1019.16 1019.16 1019.18 1019.21 1019.23 1019.24 1019.21 1019.16 1019.06 1018.93 1018.79 1018.63 1018.47 1018.33 1018.22 1018.15 1018.12 1018.13 1018.19 1018.28 1018.39 1018.52 1018.66
1017.26 1017.71 1018.12 1018.48 1018.80 1019.08 1019.32 1019.52 1019.69 1019.81 1019.89 1019.93 1019.92 1019.87 1019.79 1019.68 1019.57 1019.45 1019.35 1019.27 1019.22 1019.20 1019.21 1019.25 1019.29 1019.34 1019.37 1019.38 1019.37 1019.32 1019.24 1019.13 1019.02 1018.89 1018.78 1018.69 1018.62 1018.60 1018.61 1018.66 1018.75 1018.86 1018.98 1019.12
1016.87 1017.29 1017.66 1018.00 1018.31 1018.59 1018.84 1019.07 1019.27 1019.44 1019.57 1019.66 1019.71 1019.72 1019.68 1019.62 1019.53 1019.44 1019.35 1019.27 1019.21 1019.18 1019.18 1019.20 1019.23 1019.28 1019.32 1019.35 1019.36 1019.34 1019.30 1019.24 1019.17 1019.09 1019.02 1018.97 1018.94 1018.94 1018.98 1019.05 1019.15 1019.28 1019.41 1019.56
Thickness
5700 5707 5708 5707 5708 5711 5710 5713 5711 5717 5721 5724 5728 5727 5728 5730 5730 5730 5729 5729 5728 5727 5727 5728 5727 5727 5726 5725 5724 5722 5719 5716 5714 5712 5709 5707 5704 5702 5700 5698 5697 5695 5694 5693
5685 5695 5698 5697 5703 5706 5707 5709 5711 5714 5713 5724 5724 5724 5722 5722 5722 5721 5721 5721 5721 5721 5720 5719 5719 5720 5719 5718 5717 5716 5713 5711 5709 5707 5704 5702 5700 5698 5695 5694 5692 5690 5689 5688
5676 5687 5686 5682 5697 5700 5701 5706 5707 5704 5711 5716 5713 5712 5713 5714 5715 5715 5715 5715 5714 5713 5713 5712 5712 5713 5712 5712 5711 5709 5707 5705 5703 5701 5699 5697 5696 5694 5691 5689 5687 5685 5684 5683
5671 5669 5658 5687 5702 5702 5697 5699 5705 5706 5709 5709 5707 5707 5708 5710 5710 5709 5709 5708 5708 5707 5707 5706 5706 5706 5706 5705 5704 5702 5700 5698 5697 5695 5693 5691 5689 5687 5685 5683 5681 5680 5678 5677
5664 5662 5668 5683 5690 5692 5688 5687 5697 5698 5699 5700 5701 5700 5700 5703 5704 5703 5703 5702 5702 5702 5701 5700 5699 5699 5698 5697 5696 5694 5692 5691 5690 5688 5686 5684 5682 5680 5679 5677 5675 5674 5673 5671
5656 5653 5655 5674 5684 5689 5684 5676 5688 5690 5690 5691 5690 5688 5691 5696 5696 5696 5696 5695 5694 5695 5694 5691 5691 5691 5690 5689 5688 5686 5686 5685 5683 5682 5680 5678 5676 5673 5672 5670 5669 5668 5666 5665
5649 5649 5660 5671 5677 5677 5664 5668 5680 5684 5683 5684 5685 5686 5688 5690 5689 5689 5688 5687 5686 5686 5685 5684 5683 5683 5681 5681 5680 5680 5679 5678 5676 5674 5673 5671 5669 5667 5665 5664 5663 5661 5660 5659
5644 5643 5647 5662 5665 5662 5662 5668 5672 5674 5676 5676 5678 5680 5680 5681 5681 5681 5680 5680 5679 5677 5676 5676 5676 5675 5674 5673 5673 5673 5671 5670 5668 5666 5666 5665 5662 5659 5658 5657 5655 5654 5653 5652
5641 5642 5646 5652 5653 5657 5659 5660 5662 5665 5668 5669 5671 5672 5673 5673 5674 5674 5673 5672 5671 5670 5669 5668 5668 5667 5665 5665 5665 5664 5663 5661 5659 5658 5657 5657 5654 5652 5651 5650 5650 5649 5649 5648
5632 5639 5642 5645 5647 5650 5653 5653 5656 5658 5661 5663 5663 5665 5665 5666 5666 5665 5665 5664 5664 5663 5661 5660 5660 5660 5659 5659 5658 5656 5655 5653 5652 5651 5650 5650 5648 5647 5647 5646 5644 5643 5643 5643
5624 5630 5634 5637 5639 5642 5645 5648 5649 5652 5654 5655 5656 5656 5657 5657 5658 5658 5657 5657 5656 5654 5653 5652 5653 5652 5652 5651 5650 5648 5647 5646 5646 5646 5645 5643 5642 5640 5639 5637 5638 5636 5637 5636
5617 5622 5623 5627 5632 5635 5636 5638 5641 5643 5644 5647 5648 5648 5648 5648 5649 5649 5648 5648 5647 5647 5646 5645 5645 5644 5644 5643 5642 5640 5639 5639 5640 5640 5639 5638 5636 5632 5628 5627 5624 5623 5621 5621
5613 5617 5620 5623 5627 5629 5629 5631 5633 5635 5636 5637 5639 5640 5639 5638 5639 5639 5639 5639 5638 5638 5638 5637 5637 5636 5636 5635 5635 5634 5632 5632 5633 5633 5633 5632 5630 5628 5625 5619 5615 5613 5612 5611
5609 5610 5612 5616 5619 5622 5623 5625 5627 5629 5630 5630 5630 5630 5629 5628 5629 5629 5630 5630 5630 5630 5629 5629 5628 5628 5628 5627 5626 5626 5626 5625 5625 5626 5626 5626 5624 5622 5620 5617 5614 5611 5606 5603
5604 5606 5608 5611 5613 5615 5616 5618 5619 5620 5621 5621 5622 5621 5620 5619 5619 5620 5621 5622 5621 5621 5621 5621 5620 5620 5620 5620 5619 5618 5619 5619 5618 5619 5619 5618 5617 5615 5614 5612 5610 5607 5605 5601
5598 5601 5603 5604 5606 5607 5609 5610 5611 5612 5613 5613 5613 5612 5612 5612 5611 5612 5612 5613 5612 5612 5611 5611 5611 5612 5612 5612 5611 5610 5611 5609 5609 5611 5611 5611 5610 5608 5607 5605 5604 5601 5599 5598
5592 5593 5595 5596 5598 5600 5602 5604 5605 5605 5606 5605 5605 5605 5604 5603 5603 5603 5604 5605 5604 5604 5604 5603 5604 5605 5605 5604 5604 5605 5605 5605 5602 5603 5604 5603 5602 5601 5599 5597 5596 5594 5593 5591
5589 5591 5592 5592 5593 5594 5595 5597 5598 5599 5598 5598 5597 5596 5596 5595 5594 5595 5596 5597 5596 5596 5597 5597 5597 5598 5598 5598 5597 5599 5600 5600 5599 5598 5597 5595 5594 5593 5592 5590 5587 5586 5585 5583
5585 5586 5587 5587 5588 5588 5590 5591 5591 5592 5592 5591 5589 5588 5587 5587 5587 5588 5588 5588 5589 5589 5589 5589 5586 5589 5590 5591 5590 5591 5592 5593 5592 5591 5589 5586 5585 5586 5584 5582 5581 5579 5578 5576
5581 5582 5582 5582 5583 5583 5583 5584 5585 5585 5584 5583 5582 5580 5579 5580 5581 5581 5581 5581 5582 5582 5582 5581 5582 5583 5583 5584 5582 5586 5586 5585 5584 5583 5581 5580 5579 5578 5576 5575 5574 5573 5571 5570
5574 5575 5575 5576 5576 5576 5577 5577 5577 5577 5577 5577 5575 5573 5573 5573 5573 5574 5574 5574 5573 5573 5574 5573 5576 5577 5578 5577 5574 5579 5579 5577 5576 5575 5573 5573 5572 5570 5569 5567 5566 5566 5564 5563
5569 5569 5569 5569 5569 5569 5569 5570 5570 5570 5570 5569 5568 5568 5567 5566 5567 5567 5567 5566 5566 5564 5567 5570 5571 5568 5568 5567 5571 5572 5571 5570 5568 5567 5566 5565 5563 5562 5561 5560 5559 5558 5557 5555
5564 5563 5563 5563 5563 5563 5563 5563 5563 5563 5563 5562 5561 5561 5560 5560 5561 5562 5562 5561 5561 5558 5561 5563 5560 5558 5557 5562 5564 5565 5564 5562 5560 5560 5559 5558 5556 5555 5554 5552 5551 5550 5549 5548
5559 5559 5558 5557 5558 5558 5557 5558 5558 5557 5556 5556 5555 5555 5555 5556 5556 5557 5556 5552 5551 5550 5554 5552 5549 5549 5549 5555 5556 5556 5555 5554 5553 5553 5552 5550 5549 5548 5547 5546 5544 5543 5542 5540
5555 5555 5555 5554 5553 5554 5554 5554 5553 5552 5552 5552 5551 5549 5550 5550 5550 5551 5550 5547 5544 5544 5547 5544 5542 5542 5545 5548 5549 5548 5548 5547 5546 5545 5544 5543 5542 5541 5540 5539 5538 5536 5534 5532
5552 5552 5552 5551 5551 5551 5552 5552 5551 5550 5549 5547 5545 5544 5544 5544 5544 5544 5543 5542 5541 5539 5541 5541 5541 5539 5542 5542 5542 5541 5540 5539 5538 5538 5537 5536 5535 5534 5533 5532 5530 5529 5527 5525
5550 5550 5549 5549 5549 5549 5549 5548 5547 5546 5544 5543 5540 5539 5539 5539 5539 5538 5537 5537 5536 5536 5536 5536 5536 5536 5537 5536 5535 5534 5533 5532 5531 5531 5530 5528 5527 5526 5525 5524 5523 5522 5520 5518